Regional Weather Roundup
Issued by NWS Cleveland, OH

Home | Current Version | Previous Version | Graphics & Text | Print | Product List | Glossary On
Versions: 1 2 3 4 5 6 7 8 9 10 11 12 13 14 15 16 17 18 19 20 21 22 23 24 25 26 27 28 29 30 31 32 33 34 35 36 37 38 39 40 41 42 43 44 45 46 47 48 49 50
000
ASUS41 KCLE 251502
RWRCLE
OHIO REGIONAL WEATHER ROUNDUP
NATIONAL WEATHER SERVICE CLEVELAND, OH
1100 AM EDT SAT MAR 25 2017

NOTE: "FAIR" INDICATES FEW OR NO CLOUDS BELOW 12,000 FEET WITH NO
SIGNIFICANT WEATHER AND/OR OBSTRUCTIONS TO VISIBILITY.

OHZ001>008-015>018-024>027-034-035-043-044-251600-
   NORTHWEST OHIO

CITY           SKY/WX    TMP DP  RH WIND       PRES   REMARKS
DEFIANCE       CLOUDY    50  43  77 E14       30.13R
FINDLAY        CLOUDY    67  51  56 S5        30.12R
TOLEDO EXPRESS CLOUDY    47  41  80 E13       30.16R
TOLEDO EXEC    CLOUDY    44  41  89 NE12      30.19R FOG
LIMA           PTSUNNY   66  51  58 SW16      30.11R
$$

OHZ009>014-019>023-028>033-038-089-251600-
   NORTHEAST OHIO

CITY           SKY/WX    TMP DP  RH WIND       PRES   REMARKS
CLE-HOPKINS    CLOUDY    51  41  68 N8        30.19R
CLE-LAKEFRONT  CLOUDY    41  38  89 NE12      30.16R FOG
CUY CO. ARPT   PTSUNNY   61  50  67 NE5       30.16R
LORAIN-ELYRIA  CLOUDY    47  40  76 N8        30.17R
ASHTABULA      CLOUDY    50  43  77 VRB6      30.18R
AKRON-CANTON   CLOUDY    64  50  60 SW14      30.16S
WOOSTER        PTSUNNY   63  50  62 SW9       30.16S
MANSFIELD      CLOUDY    64  50  60 SW14G21   30.15S
YOUNGSTOWN     CLOUDY    64  51  62 SW13      30.15S
$$

OHZ042-051>053-060>062-070>072-077>081-251600-
  SOUTHWEST OHIO

CITY           SKY/WX    TMP DP  RH WIND       PRES   REMARKS
CINC-COVINGTON PTSUNNY   66  50  56 S14       30.12F
CINC-LUNKEN    CLOUDY    66  52  60 S12       30.14S
HAMILTON       PTSUNNY   68  51  54 VRB6      30.14S
DAYTON         CLOUDY    66  49  54 SW22G29   30.12S
WRIGHT-PAT AFB NOT AVBL
DAYTON GENERAL MOSUNNY   66  50  56 S15G21    30.13S
WILMINGTON     CLOUDY    66  51  58 S15       30.14S
$$

OHZ036-037-039>041-045>050-054>059-063>069-073>076-082>088-251600-
  CENTRAL AND SOUTHEAST OHIO

CITY           SKY/WX    TMP DP  RH WIND       PRES   REMARKS
COLUMBUS       PTSUNNY   69  50  50 SW14G22   30.16R
OSU AIRPORT    MOSUNNY   68  51  54 S15       30.15R
BOLTON FIELD   SUNNY     68  52  56 SW16G25   30.16R
RICKENBACK AFB MOSUNNY   66  50  56 SW13      30.15S
NEWARK         CLOUDY    67  51  56 SW8       30.16S
MARION         PTSUNNY   65  50  58 SW17      30.15R
LANCASTER      MOSUNNY   69  50  50 SW12      30.16S
ZANESVILLE     CLOUDY    69  49  48 S12       30.17S
NEW PHILLY     NOT AVBL
$$




USA.gov is the U.S. government's official web portal to all federal, state and local government web resources and services.